Flight Track Log - Related Links

Times and Time Zones

All times are in EDT time to prevent confusion due to time zone crossing. See the N850UA flight status page for this flight to view local times or setup timezone preferences in your user account.

Time Position Orientation Groundspeed Altitude Reporting Facility
EDT Latitude Longitude Course Direction KTS MPH feet Rate Location/Type
06:56PM 44.9019 -93.2464 278° West 154 177 2,400  Level FAA TRACON SMA TRACON (SMA)
06:56PM 44.9097 -93.2689 296° West 165 190 3,100 1,756 Climbing FAA TRACON SMA TRACON (SMA)
06:57PM 44.9172 -93.2900 297° West 187 215 3,600 1,950 Climbing FAA TRACON SMA TRACON (SMA)
06:57PM 44.9256 -93.3125 298° West 207 238 4,400 2,769 Climbing FAA TRACON SMA TRACON (SMA)
06:57PM 44.9372 -93.3436 298° West 231 266 5,400 3,231 Climbing FAA TRACON SMA TRACON (SMA)
06:58PM 44.9464 -93.3697 296° West 241 277 6,500 3,300 Climbing FAA TRACON SMA TRACON (SMA)
06:58PM 44.9556 -93.3961 296° West 244 281 7,600 3,450 Climbing FAA TRACON SMA TRACON (SMA)
06:58PM 44.9672 -93.4303 296° West 249 287 8,800 3,300 Climbing FAA TRACON SMA TRACON (SMA)
06:59PM 44.9441 -93.8253 281° West  Level FlightAware Approximate
06:59PM 44.9769 -93.4583 296° West 256 295 9,800  Level FAA TRACON SMA TRACON (SMA)
06:59PM 44.9869 -93.4878 296° West 266 306 10,200 1,050 Climbing FAA TRACON SMA TRACON (SMA)
06:59PM 44.9994 -93.5294 293° West 297 342 10,500 1,200 Climbing FAA TRACON SMA TRACON (SMA)
07:00PM 44.9659 -93.9778 281° West  Level FlightAware Approximate
07:00PM 45.0028 -93.5694 277° West 326 375 11,000  Level FAA TRACON SMA TRACON (SMA)
07:00PM 45.0061 -93.6106 277° West 342 394 11,900 3,600 Climbing FAA TRACON SMA TRACON (SMA)
07:00PM 45.0111 -93.6611 278° West 339 390 13,400 3,220 Climbing FAA TRACON SMA TRACON (SMA)
07:01PM 44.9864 -94.1305 278° West  Level FlightAware Approximate
07:01PM 45.0153 -93.7014 278° West 337 388 14,100  Level FAA TRACON SMA TRACON (SMA)
07:01PM 45.0197 -93.7422 279° West 341 392 14,800 2,400 Climbing FAA TRACON SMA TRACON (SMA)
07:01PM 45.0256 -93.7947 279° West 349 402 15,700 2,100 Climbing FAA TRACON SMA TRACON (SMA)
07:02PM 45.0297 -93.8372 278° West 355 409 16,200 1,538 Climbing FAA TRACON SMA TRACON (SMA)
07:02PM 45.0353 -93.8808 280° West 362 417 16,700 1,692 Climbing FAA TRACON SMA TRACON (SMA)
07:02PM 45.0408 -93.9369 278° West 373 429 17,300 2,250 Climbing FAA TRACON SMA TRACON (SMA)
07:03PM 45.0453 -93.9825 278° West 380 437 18,200 2,250 Climbing FAA TRACON SMA TRACON (SMA)
07:03PM 45.0508 -94.0275 280° West 380 437 18,800 1,950 Climbing FAA TRACON SMA TRACON (SMA)
07:03PM 45.0564 -94.0853 278° West 384 442 19,500 1,950 Climbing FAA TRACON SMA TRACON (SMA)
07:04PM 45.0614 -94.1322 279° West 389 448 20,100 1,650 Climbing FAA TRACON SMA TRACON (SMA)
07:04PM 45.0667 -94.1792 279° West 393 452 20,600 1,610 Climbing FAA TRACON SMA TRACON (SMA)
07:04PM 45.0731 -94.2386 279° West 398 458 21,200 1,610 Climbing FAA TRACON SMA TRACON (SMA)
07:05PM 45.0772 -94.2872 277° West 402 463 21,700 1,500 Climbing FAA TRACON SMA TRACON (SMA)
07:05PM 45.0833 -94.3356 280° West 405 466 22,200 1,650 Climbing FAA TRACON SMA TRACON (SMA)
07:05PM 45.0883 -94.3967 277° West 407 468 22,800 1,650 Climbing FAA TRACON SMA TRACON (SMA)
07:06PM 45.0939 -94.4456 279° West 409 471 23,300 1,350 Climbing FAA TRACON SMA TRACON (SMA)
07:06PM 45.0994 -94.4953 279° West 413 475 23,700 1,500 Climbing FAA TRACON SMA TRACON (SMA)
07:06PM 45.1050 -94.5575 277° West 415 478 24,300 1,385 Climbing FAA TRACON SMA TRACON (SMA)
07:07PM 45.1108 -94.5944 283° West 416 479 24,600 1,102 Climbing FAA TRACON SMA TRACON (SMA)
07:07PM 45.1089 -94.6686 268° West 414 476 25,200 1,109 Climbing Minneapolis Center
07:08PM 45.1247 -94.8325 278° West 420 483 26,300 1,306 Climbing Minneapolis Center
07:09PM 45.1414 -95.0000 278° West 427 491 27,900 1,645 Climbing Minneapolis Center
07:10PM 45.1450 -95.2003 272° West 432 497 29,700 1,500 Climbing Minneapolis Center
07:11PM 45.1372 -95.3661 266° West 427 491 31,000 1,210 Climbing Minneapolis Center
07:12PM 45.1275 -95.5328 265° West 428 493 32,200 1,171 Climbing Minneapolis Center
07:13PM 45.1181 -95.7003 265° West 429 494 33,400 1,073 Climbing Minneapolis Center
07:14PM 45.1094 -95.8633 266° West 423 487 34,400 1,016 Climbing Minneapolis Center
07:15PM 45.0972 -96.0614 265° West 423 487 35,500 774 Climbing Minneapolis Center
07:16PM 45.0881 -96.2269 266° West 425 489 36,000 242 Climbing Minneapolis Center
07:18PM 45.0778 -96.3908 265° West 423 487 36,000 -49 Level Minneapolis Center
07:19PM 45.0681 -96.5525 265° West 418 481 35,900 -49 Descending Minneapolis Center
07:20PM 45.0561 -96.7150 264° West 418 481 35,900  Level Minneapolis Center
07:21PM 45.0467 -96.8750 265° West 414 476 35,900  Level Minneapolis Center
07:22PM 45.0333 -97.0664 264° West 411 473 35,900  Level Minneapolis Center
07:23PM 45.0228 -97.2272 265° West 412 474 35,900  Level Minneapolis Center
07:24PM 45.0131 -97.3869 265° West 412 474 35,900 49 Level Minneapolis Center
07:25PM 45.0017 -97.5461 264° West 410 472 36,000 48 Climbing Minneapolis Center
07:26PM 44.9892 -97.7053 264° West 410 472 36,000 -48 Level Minneapolis Center
07:27PM 44.9789 -97.8617 265° West 405 466 35,900 -48 Descending Minneapolis Center
07:28PM 44.9653 -98.0214 263° West 409 471 35,900 49 Level Minneapolis Center
07:29PM 44.9508 -98.2125 264° West 410 472 36,000  Climbing Minneapolis Center
07:30PM 44.9372 -98.3692 263° West 405 466 35,900 -48 Descending Minneapolis Center
07:31PM 44.9264 -98.5108 264° West 405 466 35,900  Level Minneapolis Center
07:32PM 44.8964 -98.6997 257° West 408 470 35,900 48 Level Minneapolis Center
07:33PM 44.8600 -98.8569 252° West 417 480 36,000 48 Climbing Minneapolis Center
07:34PM 44.8250 -99.0147 253° West 420 483 36,000 -48 Level Minneapolis Center
07:35PM 44.7908 -99.1742 253° West 422 486 35,900 -48 Descending Minneapolis Center
07:36PM 44.7553 -99.3325 253° West 423 487 35,900  Level Minneapolis Center
07:37PM 44.7194 -99.4919 252° West 424 488 35,900 49 Level Minneapolis Center
07:38PM 44.6836 -99.6531 253° West 427 491 36,000 48 Climbing Minneapolis Center
07:39PM 44.6464 -99.8136 252° West 429 494 36,000  Level Minneapolis Center
07:40PM 44.6033 -100.0050 253° West 427 491 36,000  Level Minneapolis Center
07:41PM 44.5667 -100.1633 252° West 425 489 36,000 -48 Level Minneapolis Center
07:42PM 44.5300 -100.3197 252° West 423 487 35,900 -49 Descending Minneapolis Center
07:43PM 44.4925 -100.4758 251° West 421 484 35,900 49 Level Minneapolis Center
07:44PM 44.4558 -100.6314 252° West 421 484 36,000 48 Climbing Minneapolis Center
07:45PM 44.4197 -100.7864 252° West 420 483 36,000 -48 Level Minneapolis Center
07:46PM 44.3817 -100.9403 251° West 419 482 35,900 -48 Descending Minneapolis Center
07:47PM 44.3450 -101.0950 252° West 418 481 35,900 48 Level Minneapolis Center
07:48PM 44.2994 -101.2817 251° West 421 484 36,000 49 Climbing Minneapolis Center
07:49PM 44.2611 -101.4364 251° West 422 486 36,000  Level Minneapolis Center
07:50PM 44.2233 -101.5914 251° West 422 486 36,000 -61 Level Minneapolis Center
07:51PM 44.1986 -101.6822 249° West 422 486 35,900 -61 Descending Denver Center
07:52PM 44.1608 -101.8350 251° West 419 482 35,900 48 Level Denver Center
07:53PM 44.1225 -101.9875 251° West 417 480 36,000  Climbing Denver Center
07:54PM 44.0850 -102.1403 251° West 417 480 35,900 -48 Descending Denver Center
07:55PM 44.0475 -102.2911 251° West 415 478 35,900  Level Denver Center
07:56PM 44.0006 -102.4708 250° West 413 475 35,900  Level Denver Center
07:57PM 43.9636 -102.6200 251° West 411 473 35,900 48 Level Denver Center
07:58PM 43.9258 -102.7700 251° West 412 474 36,000  Climbing Denver Center
07:59PM 43.8856 -102.9197 250° West 413 475 35,900 -48 Descending Denver Center
08:00PM 43.8433 -103.0858 251° West 412 474 35,900  Level Denver Center
08:01PM 43.8050 -103.2272 249° West 411 473 35,900 48 Level Denver Center
08:02PM 43.7608 -103.3953 250° West 415 478 36,000 48 Climbing Denver Center
08:04PM 43.7228 -103.5386 250° West 416 479 36,000  Level Denver Center
08:05PM 43.6769 -103.7047 249° West 414 476 36,000 -48 Level Denver Center
08:06PM 43.6389 -103.8478 250° West 415 478 35,900 -48 Descending Denver Center
08:07PM 43.5947 -104.0114 250° West 410 472 35,900 48 Level Denver Center
08:08PM 43.5561 -104.1533 249° West 414 476 36,000  Climbing Denver Center
08:09PM 43.5108 -104.3158 249° West 410 472 35,900 -48 Descending Denver Center
08:10PM 43.4706 -104.4597 249° West 418 481 35,900 48 Level Denver Center
08:11PM 43.4250 -104.6261 249° West 419 482 36,000 48 Climbing Denver Center
08:12PM 43.3842 -104.7694 249° West 421 484 36,000  Level Denver Center
08:13PM 43.3369 -104.9342 249° West 419 482 36,000 -49 Level Denver Center
08:14PM 43.2981 -105.0731 249° West 413 475 35,900 -48 Descending Denver Center
08:15PM 43.2508 -105.2356 248° West 412 474 35,900  Level Denver Center
08:16PM 43.2111 -105.3753 249° West 413 475 35,900 48 Level Denver Center
08:17PM 43.1628 -105.5378 248° West 414 476 36,000 48 Climbing Denver Center
08:18PM 43.1231 -105.6786 249° West 415 478 36,000 -48 Level Denver Center
08:19PM 43.0814 -105.8172 248° West 413 475 35,900 -48 Descending Denver Center
08:20PM 43.0339 -105.9778 248° West 411 473 35,900  Level Denver Center
08:21PM 42.9922 -106.1156 248° West 412 474 35,900  Level Denver Center
08:22PM 42.9456 -106.2767 248° West 410 472 35,900  Level Denver Center
08:23PM 42.9039 -106.4158 248° West 413 475 35,900 48 Level Denver Center
08:24PM 42.8533 -106.5783 247° West 417 480 36,000  Climbing Denver Center
08:25PM 42.8128 -106.7139 248° West 406 467 35,900  Descending Denver Center
08:26PM 42.7644 -106.8722 247° West 407 468 36,000 48 Climbing Denver Center
08:27PM 42.7228 -107.0092 248° West 409 471 36,000 -48 Level Denver Center
08:28PM 42.6725 -107.1703 247° West 413 475 35,900 -65 Descending Denver Center
08:29PM 42.6503 -107.2447 248° West 413 475 35,900  Level Salt Lake Center
08:30PM 42.6078 -107.3803 247° West 410 472 35,900  Level Salt Lake Center
08:31PM 42.5647 -107.5164 247° West 411 473 35,900  Level Salt Lake Center
08:32PM 42.5139 -107.6753 247° West 413 475 35,900 48 Level Salt Lake Center
08:33PM 42.4714 -107.8122 247° West 414 476 36,000  Climbing Salt Lake Center
08:34PM 42.4203 -107.9733 247° West 416 479 35,900  Descending Salt Lake Center
08:35PM 42.3764 -108.1097 247° West 415 478 36,000 49 Climbing Salt Lake Center
08:36PM 42.3256 -108.2683 247° West 412 474 36,000 -48 Level Salt Lake Center
08:37PM 42.2822 -108.4022 246° West 409 471 35,900 -48 Descending Salt Lake Center
08:38PM 42.2325 -108.5592 247° West 408 470 35,900  Level Salt Lake Center
08:39PM 42.1889 -108.6922 246° West 408 470 35,900  Level Salt Lake Center
08:40PM 42.1375 -108.8469 246° West 407 468 35,900  Level Salt Lake Center
08:41PM 42.0928 -108.9797 246° West 409 471 35,900  Level Salt Lake Center
08:42PM 42.0486 -109.1144 246° West 411 473 35,900 49 Level Salt Lake Center
08:43PM 41.9947 -109.2733 246° West 418 481 36,000 49 Climbing Salt Lake Center
08:44PM 41.9489 -109.4108 246° West 423 487 36,000  Level Salt Lake Center
08:45PM 41.8942 -109.5719 246° West 426 490 36,000  Level Salt Lake Center
08:46PM 41.8472 -109.7094 245° Southwest 426 490 36,000 -49 Level Salt Lake Center
08:47PM 41.7933 -109.8664 245° Southwest 420 483 35,900 -49 Descending Salt Lake Center
08:48PM 41.7475 -110.0017 246° West 418 481 35,900  Level Salt Lake Center
08:49PM 41.6933 -110.1581 245° Southwest 416 479 35,900  Level Salt Lake Center
08:50PM 41.6472 -110.2942 246° West 420 483 35,900  Level Salt Lake Center
08:51PM 41.5906 -110.4503 244° Southwest 419 482 35,900 49 Level Salt Lake Center
08:52PM 41.5436 -110.5858 245° Southwest 420 483 36,000 49 Climbing Salt Lake Center
08:53PM 41.4958 -110.7197 245° Southwest 420 483 36,000 -48 Level Salt Lake Center
08:55PM 41.4414 -110.8750 245° Southwest 415 478 35,900  Descending Salt Lake Center
08:56PM 41.3897 -111.0211 245° Southwest 421 484 36,000  Climbing Salt Lake Center
08:57PM 41.3394 -111.1594 244° Southwest 417 480 35,900 -49 Descending Salt Lake Center
08:58PM 41.2894 -111.2981 244° Southwest 417 480 35,900  Level Salt Lake Center
08:59PM 41.2408 -111.4356 245° Southwest 413 475 35,900  Level Salt Lake Center
09:00PM 41.1894 -111.5753 244° Southwest 422 486 35,900 49 Level Salt Lake Center
09:01PM 41.1286 -111.7431 244° Southwest 425 489 36,000 48 Climbing Salt Lake Center
09:02PM 41.0772 -111.8825 244° Southwest 424 488 36,000  Level Salt Lake Center
09:03PM 41.0300 -112.0128 244° Southwest 424 488 36,000 -49 Level Salt Lake Center
09:04PM 40.9786 -112.1486 243° Southwest 417 480 35,900 -49 Descending Salt Lake Center
09:05PM 40.9286 -112.2842 244° Southwest 413 475 35,900  Level Salt Lake Center
09:06PM 40.8669 -112.4489 244° Southwest 418 481 35,900 49 Level Salt Lake Center
09:07PM 40.8153 -112.5861 244° Southwest 418 481 36,000 49 Climbing Salt Lake Center
09:08PM 40.7642 -112.7242 244° Southwest 421 484 36,000  Level Salt Lake Center
09:09PM 40.7119 -112.8614 243° Southwest 419 482 36,000 -49 Level Salt Lake Center
09:10PM 40.6603 -112.9981 244° Southwest 420 483 35,900  Descending Salt Lake Center
09:11PM 40.6083 -113.1331 243° Southwest 415 478 36,000  Climbing Salt Lake Center
09:12PM 40.5631 -113.2711 247° West 411 473 35,900 -48 Descending Salt Lake Center
09:13PM 40.5161 -113.4083 246° West 413 475 35,900  Level Salt Lake Center
09:14PM 40.4614 -113.5731 246° West 412 474 35,900  Level Salt Lake Center
09:15PM 40.4150 -113.7108 246° West 412 474 35,900  Level Salt Lake Center
09:16PM 40.3686 -113.8481 246° West 413 475 35,900  Level Salt Lake Center
09:17PM 40.3231 -113.9822 246° West 406 467 35,900  Level Salt Lake Center
09:18PM 40.2764 -114.1158 245° Southwest 405 466 35,900  Level Salt Lake Center
09:19PM 40.2311 -114.2486 246° West 401 461 35,900  Level Salt Lake Center
09:20PM 40.1844 -114.3817 245° Southwest 403 464 35,900  Level Salt Lake Center
09:21PM 40.1383 -114.5153 246° West 404 465 35,900  Level Salt Lake Center
09:22PM 40.0814 -114.6761 245° Southwest 407 468 35,900  Level Salt Lake Center
09:23PM 40.0364 -114.8044 245° Southwest 410 472 35,900  Level Salt Lake Center
09:24PM 39.9908 -114.9350 246° West 413 475 35,900  Level Salt Lake Center
09:25PM 39.9367 -115.0864 245° Southwest 412 474 35,900  Level Salt Lake Center
09:26PM 39.8908 -115.2142 245° Southwest 407 468 35,900 49 Level Salt Lake Center
09:27PM 39.8367 -115.3644 245° Southwest 409 471 36,000  Climbing Salt Lake Center
09:28PM 39.7894 -115.4919 244° Southwest 410 472 35,900  Descending Salt Lake Center
09:29PM 39.7442 -115.6194 245° Southwest 406 467 36,000  Climbing Salt Lake Center
09:30PM 39.6925 -115.7597 244° Southwest 388 447 35,900  Descending Salt Lake Center
09:31PM 39.6481 -115.8817 245° Southwest 390 449 36,000 49 Climbing Salt Lake Center
09:32PM 39.5961 -116.0225 244° Southwest 389 448 36,000  Level Salt Lake Center
09:33PM 39.5506 -116.1475 245° Southwest 396 456 36,000  Level Salt Lake Center
09:34PM 39.5050 -116.2700 244° Southwest 395 455 36,000  Level Salt Lake Center
09:36PM 39.4511 -116.4153 244° Southwest 400 460 36,000  Level Salt Lake Center
09:37PM 39.4042 -116.5397 244° Southwest 401 461 36,000 -49 Level Salt Lake Center
09:38PM 39.3594 -116.6619 245° Southwest 394 453 35,900 -49 Descending Salt Lake Center
09:39PM 39.3047 -116.8061 244° Southwest 398 458 35,900 49 Level Salt Lake Center
09:40PM 39.2583 -116.9297 244° Southwest 399 459 36,000  Climbing Salt Lake Center
09:41PM 39.2039 -117.0739 244° Southwest 399 459 35,900 -49 Descending Salt Lake Center
09:42PM 39.1556 -117.1972 243° Southwest 401 461 35,900  Level Salt Lake Center
09:43PM 39.1103 -117.3192 244° Southwest 395 455 35,900 70 Level Salt Lake Center
09:43PM 39.0886 -117.3764 244° Southwest 400 460 36,000  Climbing Oakland Center
09:44PM 39.0417 -117.5053 245° Southwest 398 458 35,900  Descending Oakland Center
09:45PM 38.9886 -117.6269 241° Southwest 390 449 36,000  Climbing Oakland Center
09:46PM 38.9342 -117.7492 240° Southwest 392 451 35,900  Descending Oakland Center
09:47PM 38.8808 -117.8694 240° Southwest 387 445 36,000  Climbing Oakland Center
09:48PM 38.8169 -118.0111 240° Southwest 382 440 35,900 -49 Descending Oakland Center
09:49PM 38.7639 -118.1294 240° Southwest 381 438 35,900 49 Level Oakland Center
09:50PM 38.7103 -118.2522 241° Southwest 390 449 36,000 49 Climbing Oakland Center
09:51PM 38.6553 -118.3722 240° Southwest 390 449 36,000  Level Oakland Center
09:52PM 38.6014 -118.4919 240° Southwest 388 447 36,000 -49 Level Oakland Center
09:53PM 38.5458 -118.6086 239° Southwest 384 442 35,900 -98 Descending Oakland Center
09:54PM 38.4908 -118.7269 239° Southwest 388 447 35,800 -541 Descending Oakland Center
09:55PM 38.4361 -118.8481 240° Southwest 392 451 34,800 -878 Descending Oakland Center
09:56PM 38.3797 -118.9681 239° Southwest 393 452 34,000 -439 Descending Oakland Center
09:57PM 38.3231 -119.0925 240° Southwest 402 463 33,900 -49 Descending Oakland Center
09:58PM 38.2658 -119.2142 239° Southwest 402 463 33,900  Level Oakland Center
09:59PM 38.2086 -119.3372 239° Southwest 404 465 33,900  Level Oakland Center
10:00PM 38.1428 -119.4792 240° Southwest 408 470 33,900  Level Oakland Center
10:01PM 38.0858 -119.6019 240° Southwest 404 465 33,900  Level Oakland Center
10:02PM 38.0256 -119.7264 238° Southwest 410 472 33,900  Level Oakland Center
10:03PM 37.9664 -119.8508 239° Southwest 410 472 33,900  Level Oakland Center
10:05PM 37.9064 -119.9761 239° Southwest 415 478 33,900  Level Oakland Center
10:06PM 37.8683 -120.1069 250° West 399 459 33,900 -590 Level Oakland Center
10:07PM 37.8319 -120.2397 251° West 397 457 32,700 -1,328 Descending Oakland Center
10:08PM 37.7944 -120.3742 251° West 404 465 31,200 -1,574 Descending Oakland Center
10:09PM 37.7564 -120.5078 250° West 402 463 29,500 -1,820 Descending Oakland Center
10:10PM 37.7178 -120.6408 250° West 402 463 27,500 -2,164 Descending Oakland Center
10:11PM 37.6811 -120.7717 251° West 397 457 25,100 -2,311 Descending Oakland Center
10:12PM 37.6439 -120.8994 250° West 389 448 22,800 -2,462 Descending Oakland Center
10:13PM 37.6167 -121.0500 257° West 396 456 20,300 -2,586 Descending Northern Cal TRACON
10:14PM 37.6000 -121.1833 261° West 389 448 17,800 -2,381 Descending Northern Cal TRACON
10:15PM 37.5833 -121.3333 262° West 371 427 15,300 -2,286 Descending Northern Cal TRACON
10:16PM 37.5667 -121.4500 260° West 357 411 13,000 -2,100 Descending Northern Cal TRACON
10:17PM 37.5500 -121.5667 260° West 358 412 11,100 -1,000 Descending Northern Cal TRACON
10:18PM 37.5333 -121.6833 260° West 348 400 11,000 -400 Descending Northern Cal TRACON
10:19PM 37.5000 -121.7833 247° West 296 341 10,300 -1,316 Descending Northern Cal TRACON
10:21PM 37.5003 -121.9761 270° West 267 307 6,900 -1,459 Descending Oakland Center
10:22PM 37.5167 -122.0500 286° West 220 253 5,900 -1,414 Descending Northern Cal TRACON
10:24PM 37.5667 -122.1833 295° West 178 205 2,800 -1,400 Descending Northern Cal TRACON
10:25PM 37.5833 -122.2333 293° West 167 192 1,700 -779 Descending Northern Cal TRACON
10:26PM 37.5831 -122.2853 270° West 163 188 1,100 -496 Descending Oakland Center
10:27PM 37.5961 -122.3225 294° West 137 158 600 -443 Descending Oakland Center
10:28PM 37.6122 -122.3603 298° West 124 143 200 -400 Descending Oakland Center

Login

Don't have an account? Register now (free) for customized features, flight alerts, and more!